CAPE
1 1 1 0 1 1 1 0 0 0 0 0 0 0 0 0 0 0 0 0 0 2025 1252 0 85 336 131 108 140 112 413 450 319 303 325 268 451 295 185 257 61 38 56 119 42
0 0 0 0 0 0 0 0 0 0 0 0 0 0 0 0 0 0 0 0 383 785 0 1 35 56 12 125 246 277 524 359 254 213 259 269 464 104 490 34 0 16 77 24 27
0 0 0 0 0 0 0 0 0 0 0 0 0 0 0 0 0 0 442 107 321 145 0 0 0 0 9 77 161 143 285 119 318 376 278 329 509 412 265 34 0 7 3 0 3
0 0 0 0 0 0 0 0 0 0 0 0 0 0 1 0 0 0 34 279 168 0 0 0 0 5 81 206 59 146 222 299 409 447 468 383 396 257 164 58 9 0 0 0 0
0 0 0 0 0 0 0 0 0 0 0 0 0 0 0 0 0 0 431 15 0 0 0 0 2 34 26 24 208 227 221 333 453 393 464 487 411 366 205 47 1 0 0 10 43
0 0 0 0 0 0 0 0 0 0 0 0 0 0 0 0 0 0 0 0 0 0 0 0 8 0 107 164 98 216 368 404 541 322 439 383 385 450 258 43 1 1 1 8 20
0 0 0 0 0 0 0 0 0 0 0 0 0 0 0 0 0 0 0 0 0 0 0 1 1 0 89 29 112 281 41 152 362 483 314 121 228 483 337 135 122 64 35 26 28
0 0 0 0 0 0 0 0 0 0 0 0 0 0 0 0 0 0 0 0 0 0 0 2 0 0 12 27 38 224 35 73 297 507 462 273 339 566 437 314 373 344 185 131 255
0 0 0 0 0 0 0 0 0 0 0 0 0 0 0 0 0 0 0 0 0 0 0 0 0 0 52 113 169 56 104 52 331 346 812 617 964 712 509 551 534 556 480 279 541
0 0 0 0 0 0 0 0 0 0 0 0 0 0 0 0 0 0 0 0 0 0 0 0 0 19 44 102 489 58 0 38 107 241 232 289 742 727 536 655 726 662 701 643 551
0 0 0 0 0 0 0 0 0 0 0 0 0 0 0 0 0 0 0 0 0 0 0 0 7 1 12 54 144 62 108 80 41 116 88 166 150 854 643 573 798 804 776 836 785
0 0 0 0 0 0 0 0 0 0 0 0 0 0 0 0 0 0 0 0 0 0 0 11 16 6 100 158 183 117 54 36 105 204 180 176 138 39 350 583 610 914 1036 1095 963
0 0 0 0 0 0 0 0 0 0 0 0 0 0 0 0 0 0 0 0 0 0 0 23 35 154 197 49 180 283 130 312 103 189 128 13 351 159 73 196 626 714 911 1114 1036
0 0 0 0 0 0 0 0 0 0 0 0 0 0 0 0 0 0 0 0 0 0 0 7 121 147 172 21 134 285 173 190 247 104 228 64 137 138 157 306 537 665 690 990 1123
0 0 0 0 0 0 0 0 0 0 0 0 0 0 0 0 0 0 0 0 0 0 2 93 127 220 96 34 142 200 284 132 74 183 106 51 77 66 50 363 448 623 594 650 1045
0 0 0 0 0 0 0 0 0 0 0 0 0 0 0 0 0 0 0 0 0 0 0 74 89 102 23 17 41 108 89 46 196 48 88 0 12 9 186 348 533 463 493 542 776
0 0 0 0 0 0 0 0 0 0 0 0 0 0 0 0 0 0 0 0 0 0 0 0 43 177 31 34 83 95 55 98 68 614 138 59 1 214 39 180 327 461 449 442 767
0 0 0 0 0 0 0 0 0 0 0 0 0 0 0 0 0 0 0 0 0 0 0 2 4 22 70 46 15 47 105 141 146 103 161 145 203 201 229 143 407 483 514 550 700
0 0 0 0 0 0 0 0 0 0 0 0 0 0 0 0 0 0 0 0 0 0 0 35 24 29 29 62 42 22 0 0 13 39 26 126 22 98 125 293 355 717 728 694 695
0 0 0 0 0 0 0 0 0 0 0 0 0 0 0 0 0 0 0 0 0 0 0 0 1 16 34 15 2 8 10 0 46 248 130 237 157 37 340 491 324 481 938 920 911
0 0 0 0 0 0 0 0 0 0 0 0 0 0 0 0 0 0 0 0 0 0 0 0 0 0 0 0 0 0 0 0 0 106 25 138 57 151 105 11 470 472 809 1124 1176
0 0 0 0 0 0 0 0 0 0 0 0 0 0 0 0 0 0 0 0 0 0 0 0 0 0 0 0 0 0 0 0 0 9 12 189 185 2 40 59 97 333 654 1256 1710
0 0 1 0 0 0 0 0 0 0 0 0 0 0 0 0 0 0 0 0 0 0 0 0 0 0 0 0 0 0 0 0 0 1 277 56 237 63 57 58 21 0 1093 1956 1907
0 0 15 0 0 0 0 0 0 0 0 0 0 0 0 0 0 0 0 0 0 0 0 0 0 0 0 3 2 0 0 0 0 0 0 0 169 30 56 256 413 442 1285 1552 2074
0 27 90 52 0 0 0 0 0 0 0 0 0 0 0 0 0 0 0 0 0 0 0 0 0 0 0 0 0 0 0 0 0 0 0 1 6 6 176 441 253 123 269 1334 2027
3 115 71 73 2 0 0 0 0 0 0 0 0 0 0 0 0 0 0 0 0 0 0 0 0 0 0 0 0 0 0 0 0 0 0 0 0 48 212 68 49 152 204 1212 2097
17 6 12 27 28 0 0 0 0 0 0 0 0 0 0 0 0 0 0 0 0 0 0 0 0 0 0 0 0 0 0 0 0 0 0 0 0 0 63 7 23 77 51 629 2127
CIN
0 0 0 0 0 0 0 0 0 0 0 0 0 0 0 0 0 0 0 0 0 -611 -672 0 -114 -46 -37 -45 -9 -99 -122 -5 -1 0 -2 0 -14 -88 -6 -4 -3 -6 -36 -44 -63
0 0 0 0 0 0 0 0 0 0 0 0 0 0 0 0 0 0 0 0 -721 -718 0 -42 -56 -8 -2 -5 -10 -11 -33 -1 0 -2 -1 -1 -52 -42 -6 -48 0 -45 -43 -86 -65
0 0 0 0 0 0 0 0 0 0 0 0 0 0 0 0 0 0 -585 -730 -690 -306 0 0 0 0 -16 -31 -189 -247 -1 -16 -2 0 -1 -3 -5 -6 -3 -33 0 -61 -54 0 -10
0 0 0 0 0 0 0 0 0 0 0 0 0 0 0 0 0 0 -821 -736 -721 0 0 0 0 -2 -34 -70 -31 -45 -10 -5 -1 0 -3 -5 0 -19 -25 -30 -55 0 0 0 -1
0 0 0 0 0 0 0 0 0 0 0 0 0 0 0 0 0 0 -689 -549 0 0 0 0 -8 -2 -100 -41 -55 -54 -55 -2 -1 -1 -4 0 -1 -11 -37 -50 -18 0 0 -1 -6
0 0 0 0 0 0 0 0 0 0 0 0 0 0 0 0 0 0 0 0 0 0 0 0 -5 0 -28 -28 -113 -61 -93 -42 -7 0 -35 -31 -38 -2 -42 -75 -12 -74 0 -13 -3
0 0 0 0 0 0 0 0 0 0 0 0 0 0 0 0 0 0 0 0 0 0 0 -1 0 -1 -17 -83 -42 -52 -443 -44 -6 -5 -69 -119 -71 -30 -42 -85 -70 -36 -34 -47 -41
0 0 0 0 0 0 0 0 0 0 0 0 0 0 0 0 0 0 0 0 0 0 0 -1 0 0 -36 -46 -52 -37 -90 -294 -8 -8 -23 -171 -24 -48 -54 -66 -61 -21 -13 -17 -8
0 0 0 0 0 0 0 0 0 0 0 0 0 0 0 0 0 0 0 0 0 0 0 0 0 0 -16 -22 -37 -229 -204 -6 -112 -18 -10 -23 -23 -22 -35 -42 -56 -25 -21 -23 -34
0 0 0 0 0 0 0 0 0 0 0 0 0 0 0 0 0 0 0 0 0 0 0 0 0 -9 -103 -18 -155 -93 -1 -31 -33 -7 -1 -10 -7 -25 -28 -33 -27 -45 -31 -6 -28
0 0 0 0 0 0 0 0 0 0 0 0 0 0 0 0 0 0 0 0 0 0 0 0 -37 -4 -329 -223 -43 -34 -141 -35 -117 -14 -13 -50 -53 0 -10 -24 -6 -10 -39 -15 -3
0 0 0 0 0 0 0 0 0 0 0 0 0 0 0 0 0 0 0 0 0 0 0 -88 -12 -63 -78 -16 -36 -108 -168 -83 -22 -42 -32 -41 -59 -52 -11 -5 -10 -10 -4 -24 -1
0 0 0 0 0 0 0 0 0 0 0 0 0 0 0 0 0 0 0 0 0 0 0 -49 -72 -25 -1 -8 -2 -29 -178 -89 -56 -13 -41 -32 -80 -288 -243 -98 -10 -3 -1 -4 -1
0 0 0 0 0 0 0 0 0 0 0 0 0 0 0 0 0 0 0 0 0 0 0 -1 -86 -49 -1 -18 -3 -5 -72 -13 -2 -1 -1 -17 -57 -183 -315 -13 -35 -2 -1 -3 -5
0 0 0 0 0 0 0 0 0 0 0 0 0 0 0 0 0 0 0 0 0 0 -2 -1 -4 -7 0 -14 -3 -2 -6 -20 -1 -16 -82 -149 -9 -62 -39 -19 -25 -9 0 -1 -17
0 0 0 0 0 0 0 0 0 0 0 0 0 0 0 0 0 0 0 0 0 0 0 -3 -2 -2 -53 -79 -27 -27 -26 -23 -65 -115 -40 0 -74 -160 -58 -25 -1 -26 -14 0 -3
0 0 0 0 0 0 0 0 0 0 0 0 0 0 0 0 0 0 0 0 0 0 0 -3 -8 -4 -47 -54 -12 -25 -19 -8 -57 -86 -46 -197 -36 -40 -190 -160 -6 -22 -38 -25 -6
0 0 0 0 0 0 0 0 0 0 0 0 0 0 0 0 0 0 0 0 0 0 0 -1 0 -14 -19 -50 -72 -44 -20 -2 -8 -56 -33 -108 -42 -2 -20 -17 -15 -23 -34 -45 -36
0 0 0 0 0 0 0 0 0 0 0 0 0 0 0 0 0 0 0 0 0 0 0 -2 -1 -3 -23 -5 -52 -79 -11 0 -3 -4 -51 -80 -83 -168 -145 -16 -18 -14 -27 -45 -44
0 0 0 0 0 0 0 0 0 0 0 0 0 0 0 0 0 0 0 0 0 0 0 0 0 -5 -23 -33 -11 -76 -47 0 -14 -24 -127 -54 -16 -211 -12 -3 -4 -3 -20 -33 -43
0 0 0 0 0 0 0 0 0 0 0 0 0 0 0 0 0 0 0 0 0 0 0 0 0 0 0 0 0 0 0 0 0 -65 -131 -66 -6 -43 -12 -3 -4 -1 -7 -22 -48
0 0 0 0 0 0 0 0 0 0 0 0 0 0 0 0 0 0 0 0 0 0 0 0 0 0 0 0 0 0 0 0 0 -25 -6 -7 -27 -67 -33 -6 -9 -9 -11 -11 -41
0 0 0 0 0 0 0 0 0 0 0 0 0 0 0 0 0 0 0 0 0 0 0 0 0 0 0 0 0 0 0 0 0 0 -1 -2 -8 -65 -92 -26 -13 0 -9 -14 -37
0 0 0 0 0 0 0 0 0 0 0 0 0 0 0 0 0 0 0 0 0 0 0 0 0 0 0 -1 -1 -1 0 0 0 0 0 0 -27 -39 -14 -5 -13 -26 -8 -12 -32
0 -27 -8 0 0 0 0 0 0 0 0 0 0 0 0 0 0 0 0 0 0 0 0 0 0 0 0 0 0 0 0 0 0 0 0 -4 -21 -17 -8 -7 -18 -12 -11 -8 -23
-5 0 -5 -35 -1 0 0 0 0 0 0 0 0 0 0 0 0 0 0 0 0 0 0 0 0 0 0 0 0 0 0 0 0 0 0 0 0 -34 -9 -7 -17 -19 -23 -4 -12
-12 -1 -4 -43 -2 0 0 0 0 0 0 0 0 0 0 0 0 0 0 0 0 0 0 0 0 0 0 0 0 0 0 0 0 0 0 0 0 0 -21 -31 -28 -19 -7 -6 -4
Wind_Speed
nan nan nan nan nan nan nan nan nan nan nan nan nan nan nan nan nan nan nan nan nan 7 9 nan nan 30 36 38 9 21 29 10 9 19 16 16 21 25 26 21 nan nan nan 16 nan
nan nan nan nan nan nan nan nan nan nan nan nan nan nan nan nan nan nan nan nan 3 7 nan nan nan nan nan 11 18 20 13 6 15 16 9 11 27 41 26 nan nan nan nan nan nan
nan nan nan nan nan nan nan nan nan nan nan nan nan nan nan nan nan nan 6 7 7 9 nan nan nan nan nan nan 22 30 12 6 3 7 17 22 26 33 24 nan nan nan nan nan nan
nan nan nan nan nan nan nan nan nan nan nan nan nan nan nan nan nan nan nan 5 4 nan nan nan nan nan nan 13 nan 2 7 9 9 19 11 13 14 14 18 nan nan nan nan nan nan
nan nan nan nan nan nan nan nan nan nan nan nan nan nan nan nan nan nan 5 nan nan nan nan nan nan nan nan nan 24 21 26 12 12 10 12 24 12 22 25 nan nan nan nan nan nan
nan nan nan nan nan nan nan nan nan nan nan nan nan nan nan nan nan nan nan nan nan nan nan nan nan nan 29 18 nan 19 30 14 10 16 10 5 11 16 28 nan nan nan nan nan nan
nan nan nan nan nan nan nan nan nan nan nan nan nan nan nan nan nan nan nan nan nan nan nan nan nan nan nan nan 35 42 nan 20 19 5 19 14 16 26 32 35 38 nan nan nan nan
nan nan nan nan nan nan nan nan nan nan nan nan nan nan nan nan nan nan nan nan nan nan nan nan nan nan nan nan nan 27 nan nan 29 24 26 29 31 38 35 36 38 39 38 39 29
nan nan nan nan nan nan nan nan nan nan nan nan nan nan nan nan nan nan nan nan nan nan nan nan nan nan nan 14 17 nan 11 nan 27 27 30 41 36 44 37 38 39 39 34 35 33
nan nan nan nan nan nan nan nan nan nan nan nan nan nan nan nan nan nan nan nan nan nan nan nan nan nan nan 16 12 nan nan nan 46 19 18 18 31 37 42 41 38 39 39 37 37
nan nan nan nan nan nan nan nan nan nan nan nan nan nan nan nan nan nan nan nan nan nan nan nan nan nan nan nan 25 nan 18 nan nan 22 nan 12 29 12 32 37 34 39 43 39 35
nan nan nan nan nan nan nan nan nan nan nan nan nan nan nan nan nan nan nan nan nan nan nan nan nan nan 33 41 28 32 nan nan 18 4 11 10 17 nan 12 23 28 35 39 41 40
nan nan nan nan nan nan nan nan nan nan nan nan nan nan nan nan nan nan nan nan nan nan nan nan nan 14 9 nan 12 34 35 13 27 13 7 nan 13 10 nan 31 20 30 38 42 39
nan nan nan nan nan nan nan nan nan nan nan nan nan nan nan nan nan nan nan nan nan nan nan nan 24 11 10 nan 10 24 27 10 18 2 11 nan 22 11 25 45 25 26 35 46 46
nan nan nan nan nan nan nan nan nan nan nan nan nan nan nan nan nan nan nan nan nan nan nan nan 17 26 nan nan 16 13 25 6 nan 33 31 nan nan nan nan 40 43 26 35 36 43
nan nan nan nan nan nan nan nan nan nan nan nan nan nan nan nan nan nan nan nan nan nan nan nan nan 19 nan nan nan 16 nan nan 27 nan nan nan nan nan 22 14 22 24 22 27 34
nan nan nan nan nan nan nan nan nan nan nan nan nan nan nan nan nan nan nan nan nan nan nan nan nan 5 nan nan nan nan nan nan nan 12 28 nan nan 14 nan 29 19 21 20 20 24
nan nan nan nan nan nan nan nan nan nan nan nan nan nan nan nan nan nan nan nan nan nan nan nan nan nan nan nan nan nan 10 8 13 36 13 12 13 30 26 20 19 24 25 22 22
nan nan nan nan nan nan nan nan nan nan nan nan nan nan nan nan nan nan nan nan nan nan nan nan nan nan nan nan nan nan nan nan nan nan nan 25 nan nan 26 21 30 29 21 20 20
nan nan nan nan nan nan nan nan nan nan nan nan nan nan nan nan nan nan nan nan nan nan nan nan nan nan nan nan nan nan nan nan nan 26 16 2 15 nan 25 21 27 33 23 19 23
nan nan nan nan nan nan nan nan nan nan nan nan nan nan nan nan nan nan nan nan nan nan nan nan nan nan nan nan nan nan nan nan nan 26 nan 14 nan 18 4 nan 23 31 36 27 23
nan nan nan nan nan nan nan nan nan nan nan nan nan nan nan nan nan nan nan nan nan nan nan nan nan nan nan nan nan nan nan nan nan nan nan 12 18 nan nan nan nan 22 37 46 32
nan nan nan nan nan nan nan nan nan nan nan nan nan nan nan nan nan nan nan nan nan nan nan nan nan nan nan nan nan nan nan nan nan nan 4 nan 21 nan nan nan nan nan 30 35 36
nan nan nan nan nan nan nan nan nan nan nan nan nan nan nan nan nan nan nan nan nan nan nan nan nan nan nan nan nan nan nan nan nan nan nan nan 24 nan nan 23 31 21 24 37 27
nan nan nan nan nan nan nan nan nan nan nan nan nan nan nan nan nan nan nan nan nan nan nan nan nan nan nan nan nan nan nan nan nan nan nan nan nan nan 25 26 26 28 26 44 30
nan 55 nan nan nan nan nan nan nan nan nan nan nan nan nan nan nan nan nan nan nan nan nan nan nan nan nan nan nan nan nan nan nan nan nan nan nan nan 35 nan nan 35 28 25 32
nan nan nan nan nan nan nan nan nan nan nan nan nan nan nan nan nan nan nan nan nan nan nan nan nan nan nan nan nan nan nan nan nan nan nan nan nan nan nan nan nan nan nan 15 35
Wind_Direction
nan nan nan nan nan nan nan nan nan nan nan nan nan nan nan nan nan nan nan nan nan 23 62 nan nan 67 58 47 1 34 54 269 218 300 4 355 277 128 14 351 nan nan nan 308 nan
nan nan nan nan nan nan nan nan nan nan nan nan nan nan nan nan nan nan nan nan 59 63 nan nan nan nan nan 285 304 82 68 253 280 312 350 346 344 30 30 nan nan nan nan nan nan
nan nan nan nan nan nan nan nan nan nan nan nan nan nan nan nan nan nan 330 41 66 51 nan nan nan nan nan nan 299 87 249 302 198 306 21 12 6 28 356 nan nan nan nan nan nan
nan nan nan nan nan nan nan nan nan nan nan nan nan nan nan nan nan nan nan 9 51 nan nan nan nan nan nan 274 nan 169 186 327 5 36 307 13 20 358 13 nan nan nan nan nan nan
nan nan nan nan nan nan nan nan nan nan nan nan nan nan nan nan nan nan 308 nan nan nan nan nan nan nan nan nan 284 92 67 313 341 355 356 12 20 3 8 nan nan nan nan nan nan
nan nan nan nan nan nan nan nan nan nan nan nan nan nan nan nan nan nan nan nan nan nan nan nan nan nan 342 323 nan 208 203 185 104 353 285 278 50 2 4 nan nan nan nan nan nan
nan nan nan nan nan nan nan nan nan nan nan nan nan nan nan nan nan nan nan nan nan nan nan nan nan nan nan nan 146 280 nan 128 113 82 1 282 95 48 3 6 10 nan nan nan nan
nan nan nan nan nan nan nan nan nan nan nan nan nan nan nan nan nan nan nan nan nan nan nan nan nan nan nan nan nan 253 nan nan 81 56 345 322 36 46 0 10 15 15 15 16 11
nan nan nan nan nan nan nan nan nan nan nan nan nan nan nan nan nan nan nan nan nan nan nan nan nan nan nan 278 244 nan 134 nan 78 46 348 23 360 2 9 11 12 11 17 15 8
nan nan nan nan nan nan nan nan nan nan nan nan nan nan nan nan nan nan nan nan nan nan nan nan nan nan nan 158 12 nan nan nan 61 317 27 32 332 334 357 4 7 14 7 17 6
nan nan nan nan nan nan nan nan nan nan nan nan nan nan nan nan nan nan nan nan nan nan nan nan nan nan nan nan 45 nan 77 nan nan 320 nan 143 283 348 359 359 4 8 5 13 4
nan nan nan nan nan nan nan nan nan nan nan nan nan nan nan nan nan nan nan nan nan nan nan nan nan nan 2 34 5 299 nan nan 167 102 283 261 242 nan 229 9 11 8 0 359 1
nan nan nan nan nan nan nan nan nan nan nan nan nan nan nan nan nan nan nan nan nan nan nan nan nan 165 75 nan 312 314 318 4 58 307 10 nan 283 258 nan 151 9 14 5 354 355
nan nan nan nan nan nan nan nan nan nan nan nan nan nan nan nan nan nan nan nan nan nan nan nan 331 22 77 nan 126 300 327 51 71 64 306 nan 319 11 303 103 93 18 13 358 360
nan nan nan nan nan nan nan nan nan nan nan nan nan nan nan nan nan nan nan nan nan nan nan nan 317 358 nan nan 246 248 334 67 nan 244 264 nan nan nan nan 32 70 17 9 4 358
nan nan nan nan nan nan nan nan nan nan nan nan nan nan nan nan nan nan nan nan nan nan nan nan nan 288 nan nan nan 215 nan nan 266 nan nan nan nan nan 74 33 348 345 8 3 358
nan nan nan nan nan nan nan nan nan nan nan nan nan nan nan nan nan nan nan nan nan nan nan nan nan 262 nan nan nan nan nan nan nan 281 5 nan nan 27 nan 71 334 333 344 351 340
nan nan nan nan nan nan nan nan nan nan nan nan nan nan nan nan nan nan nan nan nan nan nan nan nan nan nan nan nan nan 176 285 300 334 316 313 15 297 11 313 330 307 323 341 339
nan nan nan nan nan nan nan nan nan nan nan nan nan nan nan nan nan nan nan nan nan nan nan nan nan nan nan nan nan nan nan nan nan nan nan 23 nan nan 84 0 322 316 309 335 339
nan nan nan nan nan nan nan nan nan nan nan nan nan nan nan nan nan nan nan nan nan nan nan nan nan nan nan nan nan nan nan nan nan 265 209 269 294 nan 42 320 319 325 323 308 307
nan nan nan nan nan nan nan nan nan nan nan nan nan nan nan nan nan nan nan nan nan nan nan nan nan nan nan nan nan nan nan nan nan 297 nan 20 nan 186 64 nan 325 322 317 318 304
nan nan nan nan nan nan nan nan nan nan nan nan nan nan nan nan nan nan nan nan nan nan nan nan nan nan nan nan nan nan nan nan nan nan nan 267 265 nan nan nan nan 295 308 306 310
nan nan nan nan nan nan nan nan nan nan nan nan nan nan nan nan nan nan nan nan nan nan nan nan nan nan nan nan nan nan nan nan nan nan 197 nan 306 nan nan nan nan nan 281 293 307
nan nan nan nan nan nan nan nan nan nan nan nan nan nan nan nan nan nan nan nan nan nan nan nan nan nan nan nan nan nan nan nan nan nan nan nan 260 nan nan 270 264 250 295 312 302
nan nan nan nan nan nan nan nan nan nan nan nan nan nan nan nan nan nan nan nan nan nan nan nan nan nan nan nan nan nan nan nan nan nan nan nan nan nan 244 254 274 293 289 299 301
nan 202 nan nan nan nan nan nan nan nan nan nan nan nan nan nan nan nan nan nan nan nan nan nan nan nan nan nan nan nan nan nan nan nan nan nan nan nan 288 nan nan 295 281 292 296
nan nan nan nan nan nan nan nan nan nan nan nan nan nan nan nan nan nan nan nan nan nan nan nan nan nan nan nan nan nan nan nan nan nan nan nan nan nan nan nan nan nan nan 280 310